[[{"header":{"parameterUnit":"m.s-1","parameterCategory":1,"la1":30.2991,"la2":30.254,"lo1":-89.0895,"lo2":-89.0444,"dy":0.0017,"dx":0.0017,"nx":28,"ny":28,"refTime":"2025-04-16T03:00:00:Z","depth":0,"parameterNumber":2,"parameterNumberName":"U-component_of_WINDS"},"data":[0,0,0,0,0,0,0,0,0,0,0,0,0,0,0,0,0,0,0,0,0,0,0,0,0,0,0,0,0,0,0,0,0,0,0,0,0,0,0,0,0,0,0,0,0,0,0,0,0,0,0,0,0,0,0,0,0,0,0.4493,0.4493,0,0.4455,0.4454,0.4454,0.4439,0.4439,0.4439,0.4439,0.4401,0.4399,0.4398,0,0,0,0,0,0,0,0,0,0,0,0,0,0.4555,0.4554,0.4493,0.4493,0.4492,0.4455,0.4454,0.4454,0.4439,0.4439,0.4439,0.4439,0.4401,0.44,0.4398,0,0,0,0,0,0,0,0,0,0,0,0,0,0.4524,0.4554,0.4493,0.448,0.4479,0.4455,0.4454,0.4454,0.4439,0.4439,0.4439,0.4439,0.4401,0.44,0.4398,0.4384,0,0,0.4393,0.4392,0,0,0,0,0,0,0,0,0.4526,0.4521,0.4483,0.4481,0.4479,0.4452,0.4462,0.443,0.4439,0.4454,0.4439,0.444,0.4418,0.4415,0.4407,0.4383,0.4381,0.4393,0.4392,0.4391,0.439,0,0,0,0,0,0,0,0.4528,0.4523,0.4478,0.4482,0.448,0.4477,0.4473,0.4456,0.4435,0.4453,0.4452,0.4447,0.4417,0.4409,0.4406,0.438,0.4393,0.4391,0.439,0.439,0.4344,0.4344,0,0,0,0,0,0,0.4532,0.4525,0.4479,0.4477,0.4503,0.4476,0.4471,0.446,0.4436,0.4432,0.4447,0.4447,0.4411,0.4408,0.4405,0.4387,0.4391,0.4389,0.4388,0.4345,0.4344,0.4344,0,0,0,0,0,0,0.4533,0.4528,0.4481,0.4501,0.4494,0.4474,0.4463,0.446,0.4452,0.4431,0.4428,0.4443,0.4411,0.4407,0.439,0.4386,0.4389,0.4387,0.4345,0.4344,0.4344,0.4353,0,0,0,0,0,0,0.4535,0.4529,0.4523,0.45,0.4493,0.4466,0.4463,0.4459,0.4449,0.4448,0.4426,0.4423,0.4411,0.4392,0.4388,0.4384,0.4386,0.4345,0.4345,0.4344,0.4353,0.4353,0.4353,0,0,0,0,0,0.4537,0.4526,0.4522,0.4517,0.4485,0.4466,0.4462,0.4449,0.4448,0.4443,0.443,0.4423,0.4387,0.4391,0.4386,0.4381,0.4345,0.4345,0.4344,0.4353,0.4353,0.4353,0,0,0,0,0,0,0.4548,0.4523,0.4518,0.45,0.4485,0.4463,0.4455,0.4449,0.4434,0.4434,0.4419,0.4414,0.4398,0.4388,0.4392,0.4367,0.4366,0.4364,0.4374,0.4374,0.4374,0.4377,0.4384,0,0,0,0,0,0.4548,0.4534,0.4513,0.4499,0.4492,0.4475,0.4466,0.4458,0.4442,0.4435,0.4421,0.4406,0.4392,0.4382,0.4368,0.4352,0.4347,0.4346,0.4346,0.4346,0.4345,0.4337,0.4336,0.4343,0.4343,0.4343,0,0,0.4549,0.4533,0.4525,0.4501,0.4488,0.4475,0.447,0.4455,0.4445,0.4433,0.4416,0.4406,0.4388,0.4372,0.4364,0.4363,0.4343,0.4346,0.4346,0.4345,0.4336,0.4336,0.4335,0.4342,0.4342,0.4343,0,0,0.4542,0.4529,0.4516,0.4504,0.4485,0.4474,0.4471,0.4451,0.4443,0.4426,0.4417,0.4406,0.4381,0.4369,0.4359,0.4351,0.4344,0.4346,0.4347,0.4339,0.4338,0.4338,0.4335,0.4334,0.4345,0.4345,0.4345,0,0.4544,0.4523,0.451,0.4496,0.4486,0.4475,0.4462,0.4452,0.4429,0.4423,0.4422,0.4391,0.4379,0.436,0.4358,0.4351,0.4347,0.4348,0.4339,0.4339,0.4338,0.4335,0.4334,0.4346,0.4346,0.4346,0.4346,0,0.4527,0.4513,0.4505,0.4484,0.4473,0.446,0.4445,0.4436,0.4429,0.4419,0.4402,0.4387,0.437,0.4365,0.4358,0.4345,0.4345,0.4342,0.4341,0.4338,0.4335,0.4334,0.4346,0.4346,0.4346,0.4346,0,0,0.4524,0.4498,0.4495,0.4486,0.4466,0.4454,0.4441,0.4425,0.4417,0.4403,0.4392,0.4372,0.4369,0.4359,0.4351,0.4344,0.4339,0.4342,0.4341,0.4342,0.4325,0.4327,0.4326,0.4335,0.4335,0.4334,0.4327,0,0.4515,0.4491,0.4479,0.446,0.4447,0.4438,0.4427,0.4414,0.4404,0.4392,0.4382,0.4368,0.4365,0.4359,0.4352,0.4341,0.4335,0.4341,0.4325,0.4324,0.4329,0.4324,0.4326,0.432,0.4325,0.4325,0.4325,0,0.45,0.4486,0.4466,0.4448,0.4442,0.4432,0.4417,0.4405,0.4391,0.4385,0.4374,0.4366,0.4353,0.4354,0.4336,0.434,0.4333,0.4327,0.4326,0.4324,0.4324,0.4322,0.4317,0.4316,0.4323,0.4323,0.4323,0,0.45,0.4477,0.4461,0.4454,0.4433,0.4427,0.4418,0.4403,0.4395,0.4381,0.4376,0.4361,0.4353,0.4342,0.4331,0.4333,0.4315,0.4314,0.431,0.431,0.4306,0.4306,0.43,0.4302,0.4302,0.4302,0.4302,0,0.449,0.4478,0.4461,0.4452,0.4439,0.4427,0.4414,0.4405,0.4393,0.4382,0.4373,0.4364,0.435,0.4339,0.433,0.4317,0.4314,0.4309,0.4306,0.4309,0.431,0.4304,0.4304,0.4302,0.4302,0.4302,0.4302,0,0.4488,0.4476,0.4459,0.4441,0.4437,0.4428,0.4413,0.4404,0.4395,0.4382,0.4378,0.4363,0.435,0.4338,0.4321,0.4315,0.4302,0.4299,0.4306,0.4305,0.4301,0.4302,0.4291,0.4289,0.4293,0.4293,0.4293,0,0.4482,0.4472,0.4454,0.4446,0.4438,0.4425,0.4417,0.4405,0.4396,0.438,0.4374,0.436,0.4348,0.4327,0.4315,0.4302,0.4299,0.4296,0.4297,0.43,0.4299,0.43,0.4299,0.4296,0.4296,0.4296,0.4296,0,0.4473,0.4468,0.4455,0.4441,0.4431,0.4419,0.4407,0.4402,0.4388,0.4379,0.4366,0.4357,0.4339,0.4326,0.4312,0.4303,0.4298,0.4296,0.4294,0.4297,0.4301,0.4299,0.4306,0.4296,0.4296,0.4296,0.4296,0.4296,0.4468,0.446,0.4446,0.4433,0.4423,0.4413,0.4404,0.4394,0.4382,0.4367,0.4361,0.4348,0.4335,0.4315,0.4307,0.4297,0.4296,0.4293,0.4293,0.4292,0.4293,0.4304,0.4294,0.4294,0.4294,0.4294,0.4294,0,0.4459,0.445,0.4438,0.4422,0.4412,0.4408,0.4395,0.4387,0.4375,0.4364,0.4353,0.4338,0.4325,0.4313,0.43,0.4295,0.4292,0.4292,0.4292,0.429,0.4294,0.4297,0.4294,0.4294,0.4294,0.4294,0.4294,0.4294,0.4453,0.4438,0.4432,0.4414,0.4405,0.4392,0.4385,0.4375,0.4366,0.435,0.434,0.4332,0.4321,0.4307,0.4296,0.4293,0.4289,0.4289,0.4285,0.4289,0.4289,0.429,0.4292,0.4288,0.4288,0.4282,0.4282,0.4282]},{"header":{"parameterUnit":"m.s-1","parameterCategory":1,"la1":30.2991,"la2":30.254,"lo1":-89.0895,"lo2":-89.0444,"dy":0.0017,"dx":0.0017,"nx":28,"ny":28,"refTime":"2025-04-16T03:00:00:Z","depth":0,"parameterNumber":3,"parameterNumberName":"V-component_of_WINDS"},"data":[0,0,0,0,0,0,0,0,0,0,0,0,0,0,0,0,0,0,0,0,0,0,0,0,0,0,0,0,0,0,0,0,0,0,0,0,0,0,0,0,0,0,0,0,0,0,0,0,0,0,0,0,0,0,0,0,0,0,-3.0969,-3.097,0,-3.105,-3.1051,-3.1052,-3.1078,-3.1078,-3.1078,-3.1077,-3.1153,-3.1155,-3.1157,0,0,0,0,0,0,0,0,0,0,0,0,0,-3.0833,-3.0835,-3.0969,-3.097,-3.0971,-3.105,-3.1051,-3.1052,-3.1078,-3.1078,-3.1078,-3.1077,-3.1152,-3.1155,-3.1157,0,0,0,0,0,0,0,0,0,0,0,0,0,-3.09,-3.0836,-3.0969,-3.0994,-3.0997,-3.105,-3.1051,-3.1052,-3.1079,-3.1078,-3.1078,-3.1077,-3.1151,-3.1154,-3.1158,-3.1188,0,0,-3.1168,-3.117,0,0,0,0,0,0,0,0,-3.0896,-3.0905,-3.099,-3.0993,-3.0996,-3.1054,-3.103,-3.1098,-3.1079,-3.1047,-3.1077,-3.1077,-3.112,-3.1126,-3.1141,-3.1192,-3.1195,-3.1168,-3.1171,-3.1172,-3.1173,0,0,0,0,0,0,0,-3.0892,-3.0902,-3.1001,-3.0991,-3.0995,-3.0999,-3.1009,-3.1043,-3.1085,-3.105,-3.1052,-3.1062,-3.1121,-3.1138,-3.1143,-3.1196,-3.1168,-3.1171,-3.1174,-3.1175,-3.1277,-3.1277,0,0,0,0,0,0,-3.0884,-3.0898,-3.0998,-3.1003,-3.0944,-3.1002,-3.1013,-3.1036,-3.1085,-3.1092,-3.1062,-3.1063,-3.1132,-3.1139,-3.1146,-3.1186,-3.1172,-3.1175,-3.1177,-3.1276,-3.1277,-3.1277,0,0,0,0,0,0,-3.0881,-3.0892,-3.0995,-3.0951,-3.0965,-3.1005,-3.1031,-3.1037,-3.1054,-3.1094,-3.1101,-3.1072,-3.1132,-3.1141,-3.1178,-3.1189,-3.1177,-3.118,-3.1275,-3.1276,-3.1277,-3.1265,0,0,0,0,0,0,-3.0877,-3.0891,-3.0905,-3.0952,-3.0967,-3.1028,-3.1032,-3.1039,-3.1061,-3.1063,-3.1105,-3.1112,-3.1133,-3.1173,-3.1182,-3.1193,-3.1183,-3.1274,-3.1276,-3.1277,-3.1265,-3.1266,-3.1267,0,0,0,0,0,-3.0872,-3.0896,-3.0905,-3.0917,-3.0985,-3.1028,-3.1037,-3.1063,-3.1062,-3.1075,-3.1101,-3.111,-3.1187,-3.1177,-3.1187,-3.1199,-3.1274,-3.1275,-3.1277,-3.1265,-3.1266,-3.1266,0,0,0,0,0,0,-3.0846,-3.0903,-3.0913,-3.0954,-3.0987,-3.1033,-3.105,-3.1063,-3.1094,-3.1094,-3.1123,-3.1132,-3.1167,-3.1187,-3.1175,-3.1232,-3.1231,-3.1234,-3.1218,-3.1219,-3.122,-3.1214,-3.1185,0,0,0,0,0,-3.0846,-3.0879,-3.0926,-3.0957,-3.0973,-3.1009,-3.1029,-3.1046,-3.108,-3.1093,-3.1121,-3.1151,-3.1182,-3.1202,-3.1232,-3.1268,-3.1277,-3.1282,-3.1283,-3.1283,-3.1285,-3.1306,-3.1309,-3.1282,-3.1282,-3.1282,0,0,-3.0845,-3.088,-3.0898,-3.0953,-3.098,-3.1012,-3.102,-3.1053,-3.1076,-3.1097,-3.1135,-3.1156,-3.1192,-3.1229,-3.1246,-3.1246,-3.1295,-3.1285,-3.1285,-3.1287,-3.1308,-3.131,-3.1312,-3.1283,-3.1283,-3.1283,0,0,-3.0859,-3.0889,-3.0919,-3.0947,-3.0989,-3.1013,-3.102,-3.1065,-3.1081,-3.112,-3.1137,-3.1164,-3.1217,-3.1242,-3.1261,-3.1287,-3.1297,-3.1296,-3.1299,-3.1319,-3.1321,-3.1323,-3.1332,-3.1335,-3.1298,-3.1298,-3.1298,0,-3.0851,-3.0902,-3.0932,-3.0965,-3.0988,-3.1012,-3.1042,-3.1067,-3.1115,-3.113,-3.113,-3.1198,-3.1224,-3.1267,-3.1273,-3.1288,-3.1297,-3.1291,-3.1319,-3.1321,-3.1323,-3.1332,-3.1335,-3.1298,-3.1298,-3.1298,-3.1298,0,-3.089,-3.0925,-3.0944,-3.0994,-3.1019,-3.105,-3.1084,-3.1105,-3.1121,-3.1144,-3.1183,-3.1215,-3.1253,-3.1265,-3.1279,-3.131,-3.1309,-3.1314,-3.1312,-3.1325,-3.1334,-3.1337,-3.1297,-3.1297,-3.1297,-3.1297,0,0,-3.0889,-3.0958,-3.0964,-3.0988,-3.1037,-3.1063,-3.1094,-3.1134,-3.1152,-3.1185,-3.1212,-3.1257,-3.1262,-3.1284,-3.1302,-3.1319,-3.1337,-3.1322,-3.1323,-3.1323,-3.1373,-3.1369,-3.1373,-3.1345,-3.1345,-3.1346,-3.137,0,-3.091,-3.097,-3.0999,-3.1046,-3.1078,-3.1102,-3.1129,-3.1161,-3.1184,-3.1213,-3.1237,-3.1269,-3.1274,-3.1287,-3.1306,-3.1331,-3.1347,-3.133,-3.1368,-3.1369,-3.1358,-3.1377,-3.1373,-3.1394,-3.1374,-3.1374,-3.1375,0,-3.0941,-3.0978,-3.1029,-3.1075,-3.109,-3.1114,-3.1154,-3.1182,-3.1218,-3.1233,-3.1259,-3.1277,-3.1309,-3.1306,-3.1351,-3.1339,-3.1356,-3.1371,-3.1372,-3.1376,-3.1372,-3.1381,-3.1402,-3.1405,-3.138,-3.138,-3.138,0,-3.0935,-3.0997,-3.1036,-3.1055,-3.111,-3.1127,-3.115,-3.1186,-3.1209,-3.1242,-3.1257,-3.1293,-3.1312,-3.1339,-3.1365,-3.136,-3.1407,-3.1406,-3.1419,-3.1418,-3.1427,-3.1426,-3.145,-3.1439,-3.1439,-3.1439,-3.1439,0,-3.0955,-3.0985,-3.1034,-3.1058,-3.1092,-3.1124,-3.1157,-3.1181,-3.1214,-3.1241,-3.1263,-3.1288,-3.1321,-3.135,-3.137,-3.1404,-3.1412,-3.1424,-3.1429,-3.1422,-3.1421,-3.1433,-3.1432,-3.144,-3.1439,-3.1439,-3.1439,0,-3.0954,-3.0988,-3.1032,-3.1082,-3.1095,-3.1118,-3.1159,-3.1182,-3.1207,-3.1242,-3.1252,-3.1289,-3.1324,-3.1354,-3.1398,-3.1412,-3.1447,-3.1453,-3.1436,-3.1438,-3.1449,-3.1448,-3.1482,-3.1488,-3.1473,-3.1473,-3.1473,0,-3.0964,-3.0988,-3.1042,-3.1063,-3.1087,-3.1121,-3.1145,-3.1177,-3.1201,-3.1245,-3.1262,-3.13,-3.1331,-3.1385,-3.1416,-3.145,-3.1457,-3.1466,-3.1462,-3.1454,-3.1456,-3.1455,-3.1457,-3.1466,-3.1466,-3.1466,-3.1466,0,-3.0978,-3.0994,-3.1029,-3.1071,-3.1099,-3.1133,-3.1166,-3.1182,-3.122,-3.1245,-3.1283,-3.1307,-3.1355,-3.1391,-3.1429,-3.1451,-3.1464,-3.1468,-3.1473,-3.1465,-3.1454,-3.146,-3.1436,-3.1467,-3.1466,-3.1466,-3.1466,-3.1466,-3.0983,-3.1006,-3.1048,-3.1086,-3.1115,-3.1147,-3.1171,-3.12,-3.1233,-3.1276,-3.1293,-3.1331,-3.1367,-3.142,-3.1442,-3.1471,-3.1473,-3.1479,-3.1481,-3.1482,-3.1481,-3.145,-3.1478,-3.1478,-3.1478,-3.1478,-3.1478,0,-3.0998,-3.1027,-3.1062,-3.111,-3.114,-3.1153,-3.1191,-3.1214,-3.1249,-3.1283,-3.1314,-3.1357,-3.1393,-3.1426,-3.1463,-3.148,-3.1487,-3.1488,-3.1487,-3.1492,-3.1478,-3.147,-3.1482,-3.1482,-3.1482,-3.1482,-3.1482,-3.1482,-3.1009,-3.1049,-3.1071,-3.1125,-3.1153,-3.1193,-3.1213,-3.1242,-3.1269,-3.1317,-3.1348,-3.1371,-3.1404,-3.1444,-3.1477,-3.1486,-3.1498,-3.1497,-3.1508,-3.1494,-3.1493,-3.1492,-3.1485,-3.15,-3.15,-3.1519,-3.1519,-3.152]}]]